Wind_Speed
11 10 9 8 7 6 6 6 5 5 6 7 8 9 9 10 11 12 12 9 4 8 5 6 4 8 3 3 3 1 4 8 9 6 9 10 6 5 5 9 4 3 4 11 27
12 11 10 9 8 7 7 6 6 6 6 7 7 7 8 8 10 14 11 10 11 6 2 3 2 6 0 2 1 3 6 7 2 4 8 9 5 7 6 7 8 8 12 23 27
13 11 11 11 8 8 7 7 6 6 6 7 7 6 6 6 6 5 11 15 14 12 6 3 4 4 1 1 2 1 6 3 3 1 2 7 6 5 3 4 3 9 18 25 25
13 13 12 11 10 9 8 7 7 6 7 7 7 6 4 2 2 3 8 12 15 15 8 5 5 3 1 2 2 3 2 2 4 1 2 5 4 3 3 5 4 7 18 25 25
14 14 13 11 11 11 9 8 7 7 7 7 7 5 3 5 7 4 4 8 13 15 9 6 4 3 2 2 1 2 3 3 2 1 3 2 4 2 2 3 0 12 19 21 22
14 14 14 12 11 11 11 9 8 7 7 7 6 5 3 8 6 4 0 5 12 14 11 6 1 3 3 2 4 6 5 5 1 2 5 7 3 4 4 5 7 14 17 18 20
14 14 14 13 11 10 11 10 7 7 7 6 6 5 7 8 4 6 3 4 11 10 10 7 3 3 3 2 6 2 3 3 1 2 1 5 7 6 6 6 10 12 14 16 19
15 14 14 14 12 10 10 9 7 6 6 5 5 4 6 5 9 8 5 7 11 8 8 7 4 3 3 4 2 3 5 7 5 3 3 6 6 5 7 8 10 11 12 14 16
16 15 14 14 12 10 9 7 6 5 5 5 3 3 3 3 5 10 9 7 10 8 6 7 4 4 6 9 8 8 5 3 4 4 3 9 9 3 8 10 10 11 13 13 14
16 16 15 14 12 8 6 5 4 5 5 3 6 4 6 5 8 12 10 11 10 12 9 8 9 10 8 10 10 6 6 4 4 3 7 8 11 3 8 11 11 12 12 14 15
16 16 15 13 11 7 5 3 2 3 10 6 1 2 5 2 9 12 13 11 12 15 12 15 12 14 9 3 4 2 2 3 3 3 3 5 9 5 8 11 12 13 13 14 14
17 17 16 13 11 8 8 6 5 2 6 16 12 9 5 3 10 16 17 12 16 15 15 10 18 17 8 4 3 4 4 3 5 3 7 1 9 6 8 11 14 14 14 15 14
18 18 16 13 10 9 12 10 6 3 7 6 12 10 9 8 9 20 22 14 16 18 17 17 22 11 11 8 9 9 5 2 6 8 7 6 10 7 8 13 13 16 16 15 14
19 19 15 11 6 9 7 13 8 2 5 11 9 8 10 8 9 17 21 14 8 16 16 15 15 15 14 14 7 13 4 4 6 9 6 1 8 4 5 8 12 17 17 16 13
21 19 17 9 5 8 8 13 8 4 6 10 8 5 11 14 17 13 20 15 13 11 12 14 15 16 17 20 10 12 2 7 8 11 9 11 6 6 4 8 7 13 14 14 13
20 19 12 9 12 10 13 10 10 6 5 8 9 12 15 16 8 15 19 14 7 9 15 9 13 19 17 12 7 7 9 9 9 10 11 8 5 9 7 4 6 2 7 12 13
19 9 7 8 6 15 14 10 6 8 4 10 11 14 19 16 12 18 18 19 12 14 14 13 14 15 11 15 10 11 12 10 9 10 10 6 5 8 12 8 8 7 7 14 14
9 5 3 12 17 19 13 7 9 2 4 4 9 16 18 18 12 17 17 18 21 17 13 15 17 18 14 16 15 14 17 10 9 9 7 7 7 5 12 7 6 9 7 14 16
3 4 5 12 19 16 13 10 0 2 1 6 12 17 14 18 7 13 15 17 18 17 9 16 16 17 16 14 15 10 11 11 13 7 9 13 6 11 4 9 8 8 8 14 16
6 7 2 12 16 11 9 6 1 1 2 6 10 12 15 19 13 13 15 15 19 18 14 7 13 10 18 15 14 12 6 10 11 13 14 7 7 8 6 9 1 8 11 13 16
5 4 3 12 11 9 9 3 3 1 4 3 2 7 10 17 16 17 14 6 18 20 14 7 9 12 11 17 18 11 13 11 10 6 10 11 5 6 5 9 9 8 12 15 19
1 2 12 11 8 7 9 5 1 4 4 3 3 4 9 12 15 14 13 11 15 17 22 16 9 11 19 13 12 14 22 19 11 14 10 8 12 8 3 7 8 11 7 14 20
1 5 7 6 5 7 5 8 7 8 6 2 2 3 1 9 9 12 9 6 8 16 16 17 9 10 13 11 11 13 13 11 15 11 10 11 9 5 3 4 7 6 8 16 23
2 4 6 7 5 8 4 10 8 5 8 6 5 4 4 7 6 10 8 6 12 17 13 16 15 14 13 19 18 19 17 15 17 14 13 11 14 11 8 4 6 4 8 17 22
3 2 3 5 9 7 4 0 7 6 7 6 5 8 4 6 8 8 6 8 7 9 12 15 17 11 14 13 10 15 20 23 18 17 17 14 14 10 9 7 9 5 10 16 20
5 4 2 1 3 6 5 4 8 7 4 8 7 2 6 5 2 8 5 6 7 10 14 17 11 12 16 17 16 14 17 12 18 18 15 16 16 10 6 7 6 8 11 15 22
5 4 4 4 5 6 2 1 4 2 3 3 3 5 6 2 2 1 3 2 1 8 13 16 13 9 15 18 17 17 19 20 17 17 16 17 10 4 6 6 7 9 12 15 19
Wind_Direction
350 342 334 323 317 318 320 323 314 297 281 275 270 267 265 264 261 262 260 237 240 241 234 297 305 332 347 33 27 352 171 115 119 121 131 146 146 140 132 130 123 112 106 146 158
348 343 334 323 312 306 305 309 309 304 278 265 267 273 276 278 271 260 239 228 219 222 211 270 312 338 320 7 60 301 108 84 64 98 99 141 154 147 164 146 133 114 114 143 155
345 339 335 331 317 303 295 294 297 301 285 266 260 266 287 307 311 230 231 223 220 218 200 242 293 305 308 134 72 57 72 64 118 169 59 134 167 164 172 130 151 166 151 156 163
343 337 332 330 321 306 288 286 288 292 291 272 258 256 273 287 240 229 219 212 214 219 199 230 247 270 322 85 46 158 64 339 358 142 185 182 161 169 206 80 57 165 166 166 172
339 335 330 324 317 310 295 279 281 283 288 272 258 246 257 258 254 242 257 220 208 209 196 217 248 318 6 38 126 191 43 327 319 251 227 185 207 116 110 210 219 159 168 175 178
335 332 328 323 315 306 300 279 271 279 286 273 253 233 237 248 243 205 10 177 198 187 189 198 250 337 344 27 335 356 322 305 238 214 217 230 204 206 102 145 147 161 174 181 184
333 329 326 321 314 304 299 288 270 276 278 262 247 237 250 256 223 178 112 188 170 176 184 191 200 294 337 211 344 326 212 200 98 213 260 260 239 227 153 161 161 172 180 183 187
330 328 325 319 313 304 296 291 272 270 262 243 235 237 254 246 211 177 130 142 158 157 169 192 206 286 300 317 250 266 247 215 101 183 162 221 307 128 186 188 180 179 186 191 195
328 325 322 319 312 303 295 282 268 254 237 221 227 211 237 224 191 185 166 157 158 156 157 180 187 242 222 230 200 206 225 239 157 193 158 221 294 86 204 215 192 191 197 201 202
326 322 320 316 311 298 288 265 251 237 217 224 235 236 222 161 169 170 175 162 159 156 156 184 207 220 216 221 219 143 246 198 276 125 227 230 260 183 213 223 220 203 207 208 210
324 321 318 314 307 282 240 184 259 235 214 223 144 294 124 146 160 172 166 162 167 182 190 196 210 214 191 343 51 108 260 262 112 127 256 249 276 279 224 225 226 220 213 221 222
323 318 316 313 299 261 221 201 263 224 266 233 238 246 226 150 168 170 172 178 181 190 202 175 218 206 122 187 200 240 243 222 168 141 277 335 287 274 257 241 232 227 220 227 228
319 317 314 310 290 248 223 211 230 259 258 189 217 229 210 200 187 176 180 193 197 196 197 207 202 148 181 193 227 226 285 37 341 319 236 272 255 243 244 237 232 236 237 233 233
318 314 310 307 284 232 219 209 201 214 251 156 196 207 193 196 203 182 188 183 200 200 202 226 190 184 207 225 230 251 110 270 297 299 282 133 288 200 288 240 225 245 234 234 227
319 312 303 261 206 165 205 193 190 183 225 136 147 167 171 194 129 185 186 197 195 189 204 192 178 204 216 222 218 263 265 295 309 288 276 214 254 268 207 280 258 226 238 226 214
317 309 288 242 210 197 169 167 151 225 208 153 146 173 171 195 172 149 182 209 219 194 217 209 213 213 221 213 220 256 254 249 253 256 251 245 285 290 301 330 342 332 213 209 198
319 300 273 192 171 174 154 153 202 246 146 155 174 174 188 178 167 167 181 191 189 192 191 202 200 213 239 232 195 226 239 238 229 217 244 74 280 281 305 291 308 299 209 194 188
321 307 214 176 168 166 161 204 234 90 174 121 166 172 190 174 176 181 183 194 215 213 183 199 204 197 200 221 203 217 235 230 247 266 278 154 267 303 332 298 294 258 234 193 186
340 75 132 165 167 165 194 211 115 144 64 166 160 171 188 184 177 179 199 204 189 217 203 200 217 183 214 203 231 178 229 268 283 241 266 275 302 267 302 273 246 246 221 197 188
113 104 116 163 163 164 219 259 167 340 336 215 179 194 179 188 190 197 184 205 201 203 228 210 215 190 193 218 217 268 228 210 226 266 269 284 302 276 322 334 2 240 223 201 187
135 179 144 152 150 195 213 179 224 209 334 313 164 178 191 181 202 198 181 154 202 193 213 181 240 166 176 204 195 196 230 234 295 308 301 291 292 352 279 309 321 284 227 196 184
212 184 153 157 212 210 223 223 2 255 270 280 274 279 182 180 198 193 210 229 194 196 202 217 219 196 206 193 232 233 220 231 226 232 233 292 283 282 294 310 309 305 199 191 182
270 115 164 185 222 202 194 241 258 274 278 263 248 262 200 180 193 206 204 143 202 193 202 200 228 208 205 181 207 231 227 236 251 272 274 281 291 94 160 270 310 290 184 181 180
245 171 161 208 266 284 217 232 240 215 263 268 286 243 198 185 214 186 191 158 194 210 212 186 228 227 214 224 207 211 227 227 241 243 243 238 278 307 296 340 319 213 188 184 187
247 61 346 182 205 227 233 298 224 216 216 232 226 238 223 195 187 191 180 153 180 187 197 220 228 227 240 264 243 249 222 223 232 248 265 283 296 299 325 327 314 234 183 187 184
319 327 232 260 172 210 171 217 229 191 243 195 243 346 232 226 294 183 194 194 176 176 198 214 235 240 233 236 235 238 242 246 221 243 262 264 278 308 356 315 293 227 199 186 187
346 321 302 140 194 240 158 284 188 224 190 309 313 280 213 122 356 353 337 340 352 181 194 206 229 213 242 235 235 235 239 234 235 238 241 248 259 21 317 298 283 228 210 200 196
Height
1510 1508 1507 1506 1505 1504 1503 1502 1501 1500 1499 1499 1499 1499 1500 1501 1501 1501 1501 1503 1502 1502 1502 1503 1503 1503 1500 1499 1499 1499 1491 1498 1497 1496 1501 1503 1503 1508 1510 1511 1514 1518 1518 1520 1525
1510 1508 1506 1505 1504 1503 1502 1501 1500 1500 1499 1498 1498 1498 1499 1499 1499 1498 1500 1499 1500 1501 1503 1505 1503 1502 1499 1499 1499 1496 1489 1497 1495 1495 1495 1501 1503 1506 1508 1510 1515 1520 1521 1523 1527
1509 1507 1505 1504 1503 1502 1501 1500 1499 1499 1498 1497 1497 1498 1498 1498 1498 1497 1495 1497 1498 1499 1502 1503 1503 1503 1498 1498 1499 1499 1496 1498 1498 1498 1500 1501 1505 1506 1506 1507 1511 1516 1521 1524 1528
1509 1506 1504 1503 1502 1501 1500 1499 1498 1498 1497 1497 1497 1498 1498 1499 1495 1494 1493 1494 1496 1498 1502 1504 1503 1499 1497 1496 1500 1497 1499 1499 1499 1500 1502 1502 1503 1506 1508 1510 1512 1514 1519 1522 1526
1508 1506 1504 1502 1500 1499 1498 1498 1497 1497 1496 1496 1496 1497 1498 1500 1497 1493 1493 1493 1495 1497 1502 1503 1501 1500 1496 1498 1498 1496 1498 1499 1499 1501 1502 1503 1503 1504 1507 1510 1512 1513 1517 1521 1525
1507 1505 1503 1501 1499 1498 1496 1496 1496 1495 1495 1494 1495 1497 1498 1497 1492 1492 1493 1493 1494 1498 1502 1502 1502 1502 1499 1499 1498 1500 1499 1497 1498 1499 1500 1502 1502 1505 1508 1509 1512 1513 1516 1520 1523
1506 1503 1501 1499 1498 1496 1495 1494 1494 1494 1493 1493 1494 1495 1496 1494 1491 1492 1492 1492 1494 1499 1502 1503 1503 1503 1501 1499 1501 1500 1497 1495 1497 1499 1500 1503 1503 1502 1506 1509 1511 1513 1516 1519 1522
1504 1502 1500 1498 1496 1494 1494 1493 1492 1492 1492 1493 1494 1495 1494 1490 1491 1492 1493 1494 1495 1499 1502 1503 1504 1504 1502 1502 1499 1496 1495 1499 1496 1499 1501 1503 1500 1497 1506 1507 1509 1512 1516 1519 1521
1502 1500 1498 1496 1494 1492 1492 1492 1491 1491 1491 1492 1494 1495 1491 1489 1491 1492 1495 1497 1498 1500 1501 1502 1504 1502 1501 1498 1498 1494 1499 1502 1498 1497 1498 1501 1498 1501 1504 1504 1506 1510 1513 1516 1519
1500 1498 1495 1494 1492 1491 1491 1491 1491 1490 1491 1492 1493 1497 1489 1488 1489 1491 1494 1496 1498 1500 1503 1504 1502 1496 1493 1493 1505 1501 1499 1499 1499 1495 1497 1497 1497 1497 1501 1502 1503 1507 1509 1512 1515
1498 1495 1493 1491 1490 1490 1490 1491 1495 1494 1489 1485 1486 1486 1487 1488 1488 1491 1494 1496 1497 1499 1496 1500 1498 1497 1488 1490 1493 1495 1499 1499 1495 1495 1495 1494 1492 1488 1495 1500 1502 1502 1506 1509 1511
1495 1493 1491 1489 1487 1487 1488 1490 1490 1489 1485 1483 1485 1486 1486 1486 1488 1491 1494 1494 1495 1493 1493 1499 1497 1486 1492 1497 1496 1496 1498 1496 1494 1493 1494 1493 1494 1488 1492 1494 1496 1498 1501 1504 1506
1492 1490 1488 1486 1485 1485 1485 1488 1487 1488 1485 1480 1481 1483 1486 1487 1484 1487 1491 1491 1490 1489 1492 1490 1488 1488 1495 1497 1498 1493 1496 1499 1500 1492 1489 1492 1492 1488 1486 1491 1494 1495 1495 1498 1501
1488 1486 1484 1484 1486 1482 1484 1484 1486 1488 1476 1470 1476 1478 1482 1484 1483 1485 1488 1491 1489 1488 1488 1484 1480 1489 1494 1495 1494 1497 1493 1497 1497 1498 1500 1488 1505 1485 1480 1482 1487 1489 1491 1495 1497
1484 1481 1479 1481 1479 1482 1483 1483 1486 1489 1476 1466 1473 1474 1477 1478 1476 1484 1487 1489 1485 1483 1488 1484 1485 1490 1492 1491 1489 1496 1493 1494 1494 1495 1490 1485 1498 1481 1478 1479 1472 1477 1484 1489 1493
1479 1476 1474 1475 1477 1479 1480 1483 1488 1485 1471 1463 1465 1469 1473 1474 1474 1481 1486 1488 1485 1485 1487 1478 1483 1484 1484 1485 1492 1491 1495 1493 1490 1490 1502 1479 1491 1485 1473 1472 1472 1477 1480 1485 1490
1474 1471 1471 1472 1478 1478 1480 1485 1480 1467 1454 1461 1460 1462 1462 1467 1470 1474 1478 1481 1482 1492 1490 1483 1485 1483 1485 1487 1489 1493 1494 1503 1507 1500 1497 1482 1495 1481 1470 1466 1470 1473 1478 1483 1489
1470 1469 1469 1471 1473 1477 1481 1481 1473 1451 1448 1451 1452 1456 1459 1460 1463 1468 1473 1476 1474 1472 1474 1488 1496 1481 1481 1482 1486 1489 1484 1498 1515 1502 1487 1482 1496 1477 1465 1469 1473 1473 1475 1479 1486
1468 1468 1469 1471 1474 1477 1482 1471 1454 1450 1454 1451 1453 1458 1458 1458 1460 1467 1468 1468 1468 1468 1474 1478 1480 1468 1475 1479 1479 1483 1494 1474 1485 1481 1494 1480 1472 1463 1460 1464 1467 1472 1473 1477 1483
1469 1471 1473 1472 1475 1478 1475 1464 1460 1462 1458 1454 1450 1448 1458 1458 1462 1461 1466 1461 1465 1468 1464 1470 1480 1472 1473 1478 1478 1480 1473 1492 1485 1510 1510 1481 1481 1479 1469 1463 1461 1468 1470 1474 1480
1470 1470 1473 1475 1477 1478 1467 1458 1462 1463 1463 1455 1453 1451 1444 1452 1454 1457 1458 1458 1460 1465 1468 1467 1469 1474 1472 1476 1475 1484 1483 1480 1473 1478 1495 1496 1479 1453 1460 1459 1462 1460 1465 1469 1476
1471 1465 1474 1476 1476 1467 1461 1462 1468 1461 1460 1458 1457 1450 1445 1447 1452 1452 1454 1454 1457 1459 1469 1467 1465 1471 1474 1461 1463 1462 1467 1466 1484 1488 1477 1486 1482 1448 1456 1459 1461 1459 1461 1467 1474
1470 1472 1475 1475 1465 1463 1462 1464 1464 1461 1457 1454 1453 1451 1450 1448 1456 1449 1450 1453 1460 1459 1462 1464 1471 1478 1473 1466 1469 1471 1466 1466 1463 1461 1482 1487 1474 1450 1454 1457 1458 1460 1462 1467 1473
1471 1464 1474 1475 1470 1462 1461 1459 1459 1460 1458 1457 1454 1453 1450 1450 1449 1452 1451 1457 1460 1458 1461 1463 1459 1465 1471 1466 1459 1473 1467 1463 1464 1472 1468 1463 1460 1451 1448 1451 1456 1459 1462 1467 1473
1470 1462 1464 1460 1462 1461 1462 1460 1457 1455 1457 1456 1450 1452 1449 1450 1448 1448 1446 1455 1459 1461 1461 1460 1466 1459 1458 1453 1452 1454 1458 1459 1466 1461 1468 1458 1455 1451 1448 1455 1458 1457 1461 1465 1471
1472 1468 1466 1461 1463 1461 1462 1455 1455 1453 1455 1450 1453 1449 1448 1449 1444 1446 1446 1446 1448 1458 1457 1455 1460 1455 1461 1453 1453 1460 1454 1452 1457 1458 1458 1458 1455 1446 1454 1457 1458 1458 1460 1463 1468
1472 1471 1471 1461 1457 1457 1452 1455 1454 1457 1456 1456 1455 1452 1450 1451 1457 1456 1453 1452 1449 1450 1453 1452 1456 1461 1466 1449 1450 1463 1453 1450 1451 1449 1453 1458 1446 1452 1453 1453 1455 1456 1459 1462 1465